STARLINK-11505 [DTC]

Last updated on Fri Jan 31 2025 00:02:04 GMT+0000 (Coordinated Universal Time)

1 62469U 24254H 25030.57132395 .00006325 00000+0 39195-4 0 9995 2 62469 43.0021 134.4133 0002713 278.8961 81.1602 15.77851458 5972
UTC large
Height (km)
Speed (km/s)
/
Latitude / Longitude
Inclination (degrees)
Orbital Period (minutes)
Azimuth
Elevation
Range (km)
Doppler Factor

Next 0 passes for location: London (51.5072 / 0.1276)

Sorry there are no passes over London.